Preview of NWS' New Version of Forecast
This preview is not operational and should not be used for support decisions.

Regional Weather Roundup (RWR)

Issued by National Weather Service (NWS)

                            
000
ASUS44 KMEG 220810
RWRTN 
TENNESSEE HOURLY STATE WEATHER ROUNDUP
NATIONAL WEATHER SERVICE MEMPHIS TN
300 AM CDT MON APR 22 2019

TNZ002-004-019-021-049-052-054-088>092-220900-
WEST TENNESSEE
  
CITY           SKY/WX    TMP DP  RH WIND       PRES   REMARKS
MEMPHIS INTL   FAIR      57  47  69 S7        30.09F                  
NWS MEMPHIS      N/A     55 N/A N/A MISG        N/A                   
JACKSON        FAIR      49  48  97 CALM      30.12S                  
DYERSBURG      FAIR      55  51  86 CALM      30.10F                  
SOMERVILLE     CLEAR     50  48  93 CALM      30.09F                  
COVINGTON      CLEAR     54  50  87 CALM      30.09S                  
UNION CITY     CLEAR     48  48 100 CALM      30.08F                  
BOLIVAR        CLEAR     48  46  93 CALM      30.11S                  
PARIS          CLEAR     52  45  76 CALM      30.11S                  
HUNTINGDON     CLEAR     50  48  93 CALM      30.11S                  
LEXINGTON        N/A     48  46  93 CALM      30.12S                  
SELMER         CLEAR     50  46  87 CALM      30.12R                  
SAVANNAH       CLEAR     48  48 100 CALM      30.12S                  
$$

TNZ008-025-027-028-033-062-065-066-220900-
NORTH MIDDLE TENNESSEE
  
CITY           SKY/WX    TMP DP  RH WIND       PRES   REMARKS
NASHVILLE      FAIR      49  43  80 CALM      30.16R                  
DICKSON        SUNNY     52  39  62 SE5       30.13S                  
PORTLAND       CLEAR     48  41  76 S5        30.14F                  
CLARKSVILLE    FAIR      50  39  66 SE3       30.13F                  
LEBANON        SUNNY     43  41  93 CALM      30.14F                  
SMYRNA         FAIR      45  44  97 CALM      30.17S                  
MURFREESBORO   MOSUNNY   45  43  93 CALM      30.14S                  
COOKEVILLE     CLEAR     41  39  93 CALM      30.17S                  
LIVINGSTON     SUNNY     52  34  50 CALM      30.16S                  
GALLATIN       SUNNY     45  43  93 CALM      30.18S                  
CROSSVILLE     FAIR      41  36  82 W5        30.19S                  
ROCKWOOD       SUNNY     48  34  57 CALM      30.18R                  
$$

TNZ061-075-076-078-094-096-097-220900-
SOUTH MIDDLE TENNESSEE
  
CITY           SKY/WX    TMP DP  RH WIND       PRES   REMARKS
LAWRENCEBURG   MOSUNNY   46  43  87 CALM      30.14F                  
LEWISBURG      SUNNY     41  39  93 CALM      30.15S                  
FAYETTEVILLE   CLEAR     50  41  71 CALM      30.15S                  
TULLAHOMA      CLEAR     43  41  93 CALM      30.16S                  
WINCHESTER     CLEAR     43  41  93 CALM      30.16S                  
MCMINNVILLE    CLEAR     41  41 100 CALM      30.17S                  
COLUMBIA       CLEAR     46  46 100 CALM      30.14S                  
SHELBYVILLE    CLEAR     46  41  81 CALM      30.16S                  
$$

TNZ017-018-042-046-047-220900-
NORTHEAST TENNESSEE
  
CITY           SKY/WX    TMP DP  RH WIND       PRES   REMARKS
TRI CITIES     FAIR      40  38  93 CALM      30.19S                  
ELIZABETHTON   FAIR      39  39 100 CALM      30.19S FOG              
GREENEVILLE    SUNNY     41  41 100 CALM      30.18R                  
$$

TNZ012-013-036-069-073-074-220900-
CENTRAL EAST TENNESSEE
  
CITY           SKY/WX    TMP DP  RH WIND       PRES   REMARKS
KNOXVILLE      NOT AVBL                                               
OAK RIDGE      FAIR      46  42  86 CALM      30.20R                  
DOWNTOWN KNOXV CLEAR     46  46 100 CALM      30.19R FOG              
GATLINBURG     CLEAR     43  43 100 CALM      30.18S                  
MORRISTOWN     CLEAR     45  43  93 CALM      30.17R                  
JACKSBORO      CLEAR     41  41 100 CALM      30.21S                  
$$

TNZ083-085-099-220900-
SOUTHEAST TENNESSEE
  
CITY           SKY/WX    TMP DP  RH WIND       PRES   REMARKS
CHATTANOOGA    FAIR      46  43  89 CALM      30.18S                  
DAYTON         SUNNY     45  43  93 CALM      30.17S                  
$$

SKY/WX REPORTED AS FAIR MEANS FEW OR NO CLOUDS BELOW
12 THOUSAND FEET.